GW5663 Weather Reports


time (UTC)temp
C
wind
direction
speed
KPH
gust
KPH
rain 1hr
cm
rain 24hr
cm
rain mn
cm
humidity
%
barometer
mb
20260507115430 12 78 12.9 16.1 0.00 0.00 0.00 91 1097.8
20260507114926 12 53 3.2 4.8 0.00 0.00 0.00 91 1098.2
20260507114423 12 28 6.4 6.4 0.00 0.00 0.00 91 1098.0
20260507113920 12 53 8.0 16.1 0.00 0.00 0.00 91 1097.9
20260507113417 12 35 9.7 12.9 0.00 0.00 0.00 91 1098.1
20260507112914 12 39 3.2 3.2 0.00 0.00 0.00 92 1097.6
20260507112412 12 49 6.4 6.4 0.00 0.00 0.00 92 1097.9
20260507111909 12 38 4.8 9.7 0.00 0.00 0.00 92 1097.8
20260507111406 12 46 11.3 16.1 0.00 0.00 0.00 91 1097.7
20260507110902 12 37 3.2 4.8 0.00 0.00 0.00 91 1097.6
20260507110358 12 40 9.7 11.3 0.00 0.00 0.00 91 1097.6
20260507105855 12 57 8.0 9.7 0.00 0.00 0.00 90 1097.6
20260507105352 12 48 9.7 11.3 0.00 0.00 0.00 90 1097.5
20260507104848 12 59 9.7 11.3 0.00 0.00 0.00 90 1097.4
20260507104345 12 35 8.0 11.3 0.00 0.00 0.00 90 1097.3
20260507103841 12 35 9.7 12.9 0.00 0.00 0.00 90 1097.6
20260507103338 12 23 8.0 11.3 0.00 0.00 0.00 89 1097.2
20260507102834 12 11 8.0 12.9 0.00 0.00 0.00 89 1097.2
20260507102331 12 39 12.9 17.7 0.00 0.00 0.00 89 1097.0
20260507101827 12 52 6.4 9.7 0.00 0.00 0.00 89 1097.0
20260507101327 12 47 8.0 9.7 0.00 0.00 0.00 89 1097.2
20260507100825 12 53 16.1 17.7 0.00 0.00 0.00 89 1097.0
20260507100323 12 35 6.4 9.7 0.00 0.00 0.00 89 1097.0
20260507095821 12 61 11.3 12.9 0.00 0.00 0.00 89 1097.4
20260507095317 12 43 12.9 16.1 0.00 0.00 0.00 89 1097.2
20260507094814 12 50 9.7 16.1 0.00 0.00 0.00 89 1096.9
20260507094311 12 62 9.7 12.9 0.00 0.00 0.00 90 1097.3
20260507093808 13 7 6.4 6.4 0.00 0.00 0.00 91 1097.0
20260507093306 13 42 6.4 6.4 0.00 0.00 0.00 91 1097.0
20260507092804 13 37 6.4 9.7 0.00 0.00 0.00 92 1097.2
20260507092300 13 29 6.4 6.4 0.00 0.00 0.00 92 1096.8
20260507091756 13 58 6.4 6.4 0.00 0.00 0.00 92 1097.4
20260507091253 13 41 4.8 4.8 0.00 0.00 0.00 93 1097.3
20260507090753 13 42 3.2 3.2 0.00 0.00 0.00 94 1097.0
20260507090250 13 45 3.2 3.2 0.00 0.00 0.00 94 1097.3
20260507085747 13 52 3.2 3.2 0.00 0.00 0.00 94 1096.9
20260507085244 13 52 3.2 4.8 0.00 0.00 0.00 94 1096.8
20260507084741 13 69 1.6 3.2 0.00 0.00 0.00 94 1096.8
20260507084237 13 49 4.8 4.8 0.00 0.00 0.00 95 1096.7
20260507083735 13 39 4.8 6.4 0.00 0.00 0.00 95 1096.8
20260507083231 13 50 8.0 9.7 0.00 0.00 0.00 96 1096.9
20260507082728 13 57 1.6 3.2 0.00 0.00 0.00 96 1096.8
20260507082223 13 64 3.2 4.8 0.00 0.00 0.00 96 1097.0
20260507081721 13 55 0.0 1.6 0.00 0.00 0.00 96 1096.9
20260507081217 13 47 3.2 3.2 0.00 0.00 0.00 97 1097.0
20260507080713 13 39 3.2 3.2 0.00 0.00 0.00 97 1096.2
20260507080210 12 38 3.2 3.2 0.00 0.00 0.00 97 1096.5
20260507075705 12 35 0.0 0.0 0.00 0.00 0.00 97 1096.7
20260507075201 12 35 3.2 3.2 0.00 0.00 0.00 97 1096.6
20260507074658 12 33 1.6 1.6 0.00 0.00 0.00 97 1096.6
20260507074156 12 32 1.6 1.6 0.00 0.00 0.00 97 1096.7
20260507073653 12 32 1.6 1.6 0.00 0.00 0.00 97 1096.9
20260507073149 12 32 0.0 0.0 0.00 0.00 0.00 97 1096.6
20260507072647 12 32 0.0 0.0 0.00 0.00 0.00 97 1096.5
20260507072144 12 32 0.0 0.0 0.00 0.00 0.00 97 1096.4
20260507071642 12 32 0.0 0.0 0.00 0.00 0.00 96 1096.3
20260507071137 12 32 0.0 0.0 0.00 0.00 0.00 96 1096.3
20260507070635 12 33 1.6 3.2 0.00 0.00 0.00 96 1096.2
20260507070132 12 32 1.6 1.6 0.00 0.00 0.00 96 1096.0
20260507065628 12 34 1.6 1.6 0.00 0.00 0.00 96 1095.8
20260507065125 12 34 3.2 6.4 0.00 0.00 0.00 96 1095.7
20260507064623 12 49 1.6 3.2 0.00 0.00 0.00 96 1095.9
20260507064121 12 51 3.2 3.2 0.00 0.00 0.00 96 1095.6
20260507063618 12 64 3.2 3.2 0.00 0.00 0.00 96 1095.7
20260507063115 12 78 0.0 0.0 0.00 0.00 0.00 95 1095.4
20260507062611 12 78 0.0 0.0 0.00 0.00 0.00 95 1095.3
20260507062110 13 76 0.0 0.0 0.00 0.00 0.00 95 1095.2
20260507061607 13 77 0.0 1.6 0.00 0.00 0.00 95 1095.6
20260507061105 13 77 0.0 0.0 0.00 0.00 0.00 95 1095.3
20260507060603 13 84 1.6 3.2 0.00 0.00 0.00 95 1095.3
20260507060059 13 100 0.0 1.6 0.00 0.00 0.00 95 1095.2
20260507055554 13 135 3.2 3.2 0.00 0.00 0.00 95 1095.3
20260507055050 13 141 1.6 1.6 0.00 0.00 0.00 95 1095.4
20260507054547 13 145 1.6 1.6 0.00 0.00 0.00 95 1095.1
20260507054044 13 146 0.0 0.0 0.00 0.00 0.00 94 1095.3
20260507053542 13 152 1.6 1.6 0.00 0.00 0.00 94 1095.4
20260507053040 13 154 0.0 0.0 0.00 0.00 0.00 94 1095.3
20260507052537 13 154 0.0 0.0 0.00 0.00 0.00 94 1095.3
20260507052034 13 155 0.0 1.6 0.00 0.00 0.00 94 1095.4
20260507051532 13 156 0.0 0.0 0.00 0.00 0.00 94 1095.2
20260507051028 13 156 1.6 1.6 0.00 0.00 0.00 94 1095.7
20260507050525 13 156 0.0 0.0 0.00 0.00 0.00 93 1095.6
20260507050021 13 156 0.0 1.6 0.00 0.15 0.15 93 1095.3
20260507045518 13 156 0.0 0.0 0.00 0.15 0.15 93 1095.1
20260507045015 13 156 1.6 1.6 0.00 0.15 0.15 93 1094.9
20260507044512 13 156 0.0 1.6 0.00 0.15 0.15 92 1094.9
20260507044009 13 156 0.0 0.0 0.00 0.15 0.15 92 1094.8
20260507043505 14 156 1.6 1.6 0.00 0.15 0.15 92 1094.9
20260507043001 14 156 0.0 0.0 0.00 0.15 0.15 91 1094.7
20260507042458 14 156 0.0 1.6 0.00 0.15 0.15 91 1094.8
20260507041954 14 156 0.0 1.6 0.00 0.15 0.15 91 1094.8
20260507041451 14 157 0.0 1.6 0.00 0.15 0.15 90 1094.7
20260507040948 14 155 1.6 1.6 0.00 0.15 0.15 90 1094.7
20260507040443 14 154 1.6 1.6 0.00 0.15 0.15 90 1094.4
20260507035939 15 155 0.0 0.0 0.00 0.15 0.15 90 1094.5
20260507035436 15 154 1.6 1.6 0.00 0.15 0.15 89 1094.4
20260507034933 15 154 1.6 1.6 0.00 0.15 0.15 89 1094.1
20260507034430 15 154 3.2 3.2 0.00 0.15 0.15 89 1094.0
20260507033928 15 154 0.0 0.0 0.00 0.15 0.15 88 1094.3
20260507033425 15 155 3.2 3.2 0.00 0.15 0.15 88 1094.3
20260507032922 15 155 1.6 1.6 0.00 0.15 0.15 88 1094.0
20260507032419 15 155 0.0 0.0 0.00 0.15 0.15 88 1093.9
20260507031915 15 154 0.0 0.0 0.00 0.15 0.15 87 1094.2
20260507031412 15 154 0.0 1.6 0.00 0.15 0.15 87 1093.9
20260507030909 15 154 0.0 1.6 0.00 0.15 0.15 86 1094.0
20260507030406 15 154 0.0 0.0 0.00 0.15 0.15 86 1093.7
20260507025903 15 155 0.0 1.6 0.00 0.15 0.15 86 1093.9
20260507025400 15 154 0.0 0.0 0.00 0.15 0.15 86 1093.9
20260507024858 15 154 1.6 1.6 0.00 0.15 0.15 86 1093.6
20260507024355 15 154 0.0 0.0 0.00 0.15 0.15 86 1093.5
20260507023851 15 154 0.0 0.0 0.00 0.15 0.15 85 1093.4
20260507023348 16 154 0.0 0.0 0.00 0.15 0.15 84 1093.3
20260507022845 16 154 0.0 1.6 0.00 0.15 0.15 83 1093.4
20260507022341 16 153 1.6 3.2 0.00 0.15 0.15 83 1093.3
20260507021837 16 151 3.2 3.2 0.00 0.15 0.15 82 1093.3
20260507021333 16 144 1.6 1.6 0.00 0.15 0.15 81 1093.1
20260507020831 17 116 1.6 3.2 0.00 0.15 0.15 80 1093.1
20260507020327 17 85 1.6 1.6 0.00 0.15 0.15 79 1093.2
20260507015825 17 105 1.6 1.6 0.00 0.15 0.15 78 1092.8
20260507015322 17 94 3.2 4.8 0.00 0.15 0.15 77 1092.8
20260507014819 17 83 3.2 3.2 0.00 0.15 0.15 76 1092.8
20260507014316 17 96 0.0 1.6 0.00 0.15 0.15 76 1092.7
20260507013812 17 117 3.2 3.2 0.00 0.15 0.15 74 1092.8
20260507013309 18 115 3.2 4.8 0.00 0.15 0.15 73 1093.0
20260507012807 18 60 4.8 6.4 0.00 0.15 0.15 73 1092.9
20260507012305 18 100 1.6 3.2 0.00 0.15 0.15 73 1092.6
20260507011800 18 54 4.8 6.4 0.00 0.15 0.15 72 1092.5
20260507011256 18 62 3.2 3.2 0.00 0.15 0.15 72 1092.6
20260507010756 18 113 1.6 1.6 0.00 0.15 0.15 72 1092.4
20260507010252 18 99 1.6 3.2 0.00 0.15 0.15 70 1092.6
20260507005750 19 121 6.4 6.4 0.00 0.15 0.15 70 1091.9
20260507005246 19 94 3.2 3.2 0.00 0.15 0.15 69 1092.3
20260507004742 19 109 4.8 6.4 0.00 0.15 0.15 69 1092.3
20260507004240 20 83 1.6 3.2 0.00 0.15 0.15 69 1091.8
20260507003736 20 107 4.8 4.8 0.00 0.15 0.15 68 1092.4
20260507003232 20 110 3.2 4.8 0.00 0.15 0.15 65 1092.2
20260507002728 20 65 0.0 0.0 0.00 0.15 0.15 64 1092.4
20260507002224 20 85 3.2 4.8 0.00 0.15 0.15 62 1092.0
20260507001721 21 51 1.6 3.2 0.00 0.15 0.15 62 1092.2
20260507001218 21 85 4.8 6.4 0.00 0.15 0.15 61 1092.2
20260507000714 21 46 1.6 3.2 0.00 0.15 0.15 61 1091.9
20260507000212 21 41 4.8 4.8 0.00 0.15 0.15 61 1091.9
20260506235708 21 56 6.4 9.7 0.00 0.15 0.15 60 1091.9
20260506235203 21 59 3.2 3.2 0.00 0.15 0.15 60 1091.7
20260506234700 21 56 9.7 11.3 0.00 0.15 0.15 59 1091.8
20260506234157 21 80 8.0 11.3 0.00 0.15 0.15 59 1091.6
20260506233654 21 37 4.8 4.8 0.00 0.15 0.15 58 1091.9
20260506233151 22 111 3.2 4.8 0.00 0.15 0.15 58 1092.0
20260506232647 22 42 8.0 9.7 0.00 0.15 0.15 59 1091.8
20260506232142 22 26 3.2 4.8 0.00 0.15 0.15 60 1091.5
20260506231640 22 60 4.8 6.4 0.00 0.15 0.15 58 1091.7
20260506231139 22 60 6.4 6.4 0.00 0.15 0.15 59 1092.0
20260506230635 22 65 1.6 3.2 0.00 0.15 0.15 61 1091.7
20260506230132 21 23 1.6 1.6 0.00 0.15 0.15 61 1092.0
20260506225628 22 48 8.0 9.7 0.00 0.15 0.15 59 1091.9
20260506225125 22 38 6.4 6.4 0.00 0.15 0.15 59 1092.0
20260506224622 22 45 6.4 6.4 0.00 0.15 0.15 60 1091.6
20260506224118 22 80 3.2 4.8 0.00 0.15 0.15 58 1091.8
20260506223614 22 49 3.2 4.8 0.00 0.15 0.15 60 1091.7
20260506223110 21 92 3.2 3.2 0.00 0.15 0.15 60 1091.7
20260506222608 22 13 0.0 0.0 0.00 0.15 0.15 62 1091.6
20260506222104 22 35 6.4 6.4 0.00 0.15 0.15 60 1091.5
20260506221602 22 77 3.2 4.8 0.00 0.15 0.15 62 1091.4
20260506221100 21 53 1.6 3.2 0.00 0.15 0.15 63 1091.7
20260506220555 21 35 4.8 6.4 0.00 0.15 0.15 63 1091.5
20260506220051 21 37 6.4 6.4 0.00 0.15 0.15 65 1091.6
20260506215548 21 78 3.2 4.8 0.00 0.15 0.15 65 1091.9
20260506215043 21 44 1.6 3.2 0.00 0.15 0.15 66 1091.8
20260506214541 21 93 4.8 4.8 0.00 0.15 0.15 65 1091.9
20260506214038 21 47 3.2 6.4 0.00 0.15 0.15 67 1091.7
20260506213536 20 65 6.4 6.4 0.00 0.15 0.15 67 1091.7
20260506213033 21 34 6.4 6.4 0.00 0.15 0.15 67 1091.9
20260506212530 21 34 6.4 9.7 0.00 0.15 0.15 66 1092.0
20260506212024 21 75 4.8 4.8 0.00 0.15 0.15 66 1091.8
20260506211521 20 91 3.2 3.2 0.00 0.15 0.15 68 1092.3
20260506211018 20 32 4.8 4.8 0.00 0.15 0.15 67 1092.5
20260506210514 20 92 1.6 3.2 0.00 0.15 0.15 70 1092.4
20260506210011 20 53 9.7 14.5 0.00 0.15 0.15 69 1092.6
20260506205508 19 75 6.4 6.4 0.00 0.15 0.15 71 1092.5
20260506205003 19 53 4.8 6.4 0.00 0.15 0.15 73 1092.4
20260506204502 19 37 8.0 9.7 0.00 0.15 0.15 72 1092.3
20260506203958 18 68 8.0 9.7 0.00 0.15 0.15 74 1092.4
20260506203456 19 23 3.2 4.8 0.00 0.15 0.15 73 1092.4
20260506202953 20 37 3.2 4.8 0.00 0.15 0.15 73 1092.8
20260506202450 18 36 4.8 4.8 0.00 0.15 0.15 75 1092.6
20260506201946 18 94 4.8 4.8 0.00 0.15 0.15 76 1092.8
20260506201444 17 78 1.6 1.6 0.00 0.15 0.15 78 1092.8
20260506200940 17 34 11.3 14.5 0.00 0.15 0.15 77 1092.8
20260506200437 17 80 6.4 9.7 0.00 0.15 0.15 77 1092.9
20260506195933 18 94 1.6 1.6 0.00 0.15 0.15 75 1093.2
20260506195430 17 51 6.4 9.7 0.00 0.15 0.15 79 1093.2
20260506194927 17 23 6.4 9.7 0.00 0.15 0.15 79 1093.3
20260506194424 16 100 4.8 6.4 0.00 0.15 0.15 81 1093.4
20260506193921 16 72 6.4 6.4 0.00 0.15 0.15 81 1093.4
20260506193418 17 37 6.4 9.7 0.00 0.15 0.15 80 1093.4
20260506192914 16 84 4.8 6.4 0.00 0.15 0.15 82 1093.4
20260506192411 16 63 8.0 11.3 0.00 0.15 0.15 83 1093.6
20260506191908 16 19 4.8 6.4 0.00 0.15 0.15 83 1093.6
20260506191404 15 48 3.2 3.2 0.00 0.15 0.15 84 1093.7
20260506190901 15 31 4.8 6.4 0.00 0.15 0.15 84 1093.6
20260506190358 15 46 8.0 11.3 0.00 0.15 0.15 84 1093.9
20260506185855 15 56 8.0 12.9 0.00 0.15 0.15 85 1094.0
20260506185352 15 39 8.0 9.7 0.00 0.15 0.15 85 1093.9
20260506184849 15 12 4.8 4.8 0.00 0.15 0.15 85 1094.1
20260506184346 15 52 8.0 11.3 0.00 0.15 0.15 84 1094.0
20260506183843 15 43 3.2 4.8 0.00 0.15 0.15 85 1094.1
20260506183338 15 32 6.4 9.7 0.00 0.15 0.15 85 1094.0
20260506182836 15 59 4.8 6.4 0.00 0.15 0.15 85 1094.0
20260506182333 15 48 6.4 6.4 0.00 0.15 0.15 85 1094.2
20260506181831 15 38 6.4 9.7 0.00 0.15 0.15 84 1094.2
20260506181329 15 45 4.8 6.4 0.00 0.15 0.15 86 1094.3
20260506180825 14 35 4.8 6.4 0.00 0.15 0.15 85 1094.1
20260506180321 15 54 3.2 4.8 0.00 0.15 0.15 85 1094.2
20260506175817 14 32 8.0 11.3 0.00 0.15 0.15 85 1094.3
20260506175315 14 35 6.4 9.7 0.00 0.15 0.15 86 1094.4
20260506174812 14 34 6.4 9.7 0.00 0.15 0.15 85 1094.2
20260506174309 14 63 11.3 14.5 0.00 0.15 0.15 86 1094.4
20260506173806 13 101 6.4 9.7 0.00 0.15 0.15 86 1094.6
20260506173303 13 29 8.0 12.9 0.00 0.15 0.15 87 1094.3
20260506172800 13 47 14.5 16.1 0.00 0.15 0.15 87 1094.5
20260506172256 13 31 6.4 6.4 0.00 0.15 0.15 87 1094.5
20260506171754 13 44 6.4 11.3 0.00 0.15 0.15 86 1094.8
20260506171251 13 52 6.4 9.7 0.00 0.15 0.15 87 1094.4
20260506170749 13 44 12.9 12.9 0.00 0.15 0.15 87 1094.4
20260506170245 13 32 4.8 4.8 0.00 0.15 0.15 89 1094.3
20260506165744 13 23 8.0 9.7 0.00 0.15 0.15 89 1094.3
20260506165241 13 43 4.8 6.4 0.00 0.15 0.15 88 1094.0
20260506164738 13 28 8.0 9.7 0.00 0.15 0.15 89 1094.4
20260506164234 13 21 6.4 6.4 0.00 0.15 0.15 89 1093.7
20260506163731 13 32 6.4 9.7 0.00 0.15 0.15 90 1093.6
20260506163226 13 6 4.8 9.7 0.00 0.15 0.15 90 1093.6
20260506162722 13 61 8.0 12.9 0.00 0.15 0.15 90 1094.2
20260506162220 13 43 8.0 11.3 0.00 0.15 0.15 90 1093.9
20260506161717 12 53 11.3 14.5 0.00 0.15 0.15 90 1093.9
20260506161215 12 58 4.8 6.4 0.00 0.15 0.15 91 1093.7
20260506160712 12 31 6.4 6.4 0.00 0.15 0.15 91 1094.0
20260506160208 12 21 8.0 11.3 0.00 0.15 0.15 91 1093.6
20260506155707 12 43 4.8 6.4 0.00 0.15 0.15 91 1093.4
20260506155204 12 35 8.0 11.3 0.00 0.15 0.15 92 1093.5
20260506153305 11 39 6.4 11.3 0.00 0.15 0.15 94 1093.5
20260506152802 11 37 8.0 9.7 0.00 0.15 0.15 94 1093.3
20260506152300 11 31 6.4 11.3 0.00 0.15 0.15 95 1093.2
20260506151759 11 45 3.2 3.2 0.00 0.15 0.15 95 1093.6
20260506151255 11 27 9.7 11.3 0.00 0.15 0.15 95 1093.3
20260506150751 11 59 11.3 16.1 0.00 0.15 0.15 95 1093.4
20260506150249 11 31 8.0 11.3 0.00 0.15 0.15 96 1093.1
20260506145745 11 42 6.4 9.7 0.00 0.15 0.15 96 1093.1
20260506145242 11 44 6.4 6.4 0.00 0.15 0.15 96 1093.1
20260506144739 11 55 4.8 6.4 0.00 0.15 0.15 96 1093.1
20260506144236 11 36 4.8 6.4 0.00 0.15 0.15 96 1092.8
20260506143734 11 34 8.0 11.3 0.00 0.15 0.15 96 1092.7
20260506143231 11 28 9.7 11.3 0.00 0.15 0.15 96 1092.7
20260506142730 11 24 9.7 14.5 0.00 0.15 0.15 96 1093.0
20260506142227 11 53 11.3 16.1 0.00 0.15 0.15 97 1092.5
20260506141725 11 38 6.4 11.3 0.00 0.15 0.15 97 1092.2
20260506141223 11 51 6.4 9.7 0.00 0.15 0.15 97 1092.2
20260506140721 11 30 4.8 4.8 0.00 0.15 0.15 97 1092.6
20260506140217 11 34 4.8 4.8 0.00 0.15 0.15 98 1092.5
20260506135714 11 38 4.8 6.4 0.00 0.15 0.15 98 1091.9
20260506135210 11 19 3.2 3.2 0.00 0.15 0.15 98 1091.7
20260506134707 11 42 6.4 6.4 0.00 0.15 0.15 98 1091.6
20260506134203 11 50 16.1 16.1 0.00 0.15 0.15 98 1092.0
20260506133700 11 60 3.2 4.8 0.00 0.15 0.15 98 1092.0
20260506133157 11 17 6.4 6.4 0.00 0.15 0.15 98 1091.7
20260506132655 11 332 0.0 1.6 0.00 0.15 0.15 97 1092.6
20260506132151 11 129 8.0 11.3 0.00 0.15 0.15 97 1091.7
20260506131649 11 174 1.6 3.2 0.00 0.15 0.15 97 1091.8
20260506131145 11 156 6.4 11.3 0.00 0.15 0.15 97 1091.3
20260506130642 11 337 3.2 3.2 0.00 0.15 0.15 96 1091.0
20260506130139 11 27 8.0 12.9 0.00 0.15 0.15 96 1090.8
20260506125637 11 340 3.2 3.2 0.00 0.15 0.15 96 1091.3
20260506125135 11 0 3.2 3.2 0.00 0.15 0.15 95 1091.2
20260506124633 11 91 6.4 14.5 0.61 0.15 0.15 94 1089.8
20260506124130 11 56 8.0 16.1 0.89 0.15 0.15 93 1090.3
20260506123627 12 58 3.2 4.8 0.61 0.10 0.10 91 1091.2
20260506123126 12 325 6.4 6.4 0.00 0.00 0.00 87 1093.2
20260506122622 12 36 4.8 6.4 0.00 0.00 0.00 86 1091.9
20260506122120 12 45 8.0 9.7 0.00 0.00 0.00 86 1091.5
20260506121618 12 23 3.2 4.8 0.00 0.00 0.00 87 1091.5
20260506121114 12 68 6.4 11.3 0.00 0.00 0.00 86 1091.0
20260506120612 12 48 4.8 4.8 0.00 0.00 0.00 87 1090.2
20260506120109 12 59 6.4 6.4 0.00 0.00 0.00 87 1089.7